Погода в Ивне

Россия / Белгородская область     51°03′43″N   36°08′12″E
темп.,
°C
ветер,
м/с
пор.,
м/с
влажн.,
%
обл.,
%
осадки,
мм/ч
давл.,
гПа
погр.,
м
15 апреля, чт
чт1500:00+11с2482100 0.1 101390
03:00+10ююз358738 0.3 1013112
06:00+8ююз379681 0.0 1013170
09:00+11ююз457062 0.0 1014585
12:00+14ю455477 0.0 10131438
15:00+15юв5644100 0.0 10122128
18:00+13ююв466296 0.6 10121057
21:00+10ююв6986100 1.7 1012492
16 апреля, пт
пт1600:00+7ю49895 0.4 1013400
03:00+6юв3692100 0.4 1014166
06:00+7юв4890100 0.2 1014371
09:00+8ююв588362 0.2 1015685
12:00+10ююв686890 0.3 10161188
15:00+11ю7865100 0.6 10161314
18:00+10ю466995 0.4 1016739
21:00+7ююв34818 0.5 101765
17 апреля, сб
сб1700:00+6ю359388 0.1 1018111
03:00+6ююв229090 0.2 101835
06:00+5ссв009311 0.0 101910
09:00+8зюз2276100 0.0 1019469
12:00+11з445748 0.4 10181295
15:00+12з6654100 0.9 10191436
18:00+10з455797 0.0 10191141
21:00+8з4868100 0.0 1020301
18 апреля, вс
вс1800:00+6зюз4879100 0.0 1020382
03:00+5зюз4108192 0.0 1019367
06:00+5зюз71483100 0.1 1016615
09:00+6з71292100 1.4 1015648
12:00+9ссз577590 0.3 10161000
15:00+8ссв787593 0.4 1018849
18:00+7ссв4980100 0.0 1019984
21:00+6ссв37877 0.0 1020196
19 апреля, пн
пн1900:00+4ссв39933 0.0 1020184
03:00+4св389720 0.0 1020207
06:00+4ссв4997100 0.0 1021405
09:00+5св5985100 0.0 1021643
12:00+8всв5773100 0.0 1022953
15:00+9св5873100 0.0 10211052
18:00+9всв71066100 0.0 10211000
21:00+7всв61287100 0.0 1022747